Livingston, MT

10:56 AM MDT on October 18, 2017 (GMT -0600)
Mission

Weather History for KLVM - September, 2013

Change the Weather History Date:

Wednesday, September 11, 2013

  Actual Average Record
Temperature  
Mean Temperature 62 °F 58 °F  
Max Temperature 82 °F 74 °F 93 °F (1959)
Min Temperature 41 °F 41 °F 17 °F (1989)
Degree Days  
Heating Degree Days 3 8  
Month to date heating degree days 9 71  
Since 1 July heating degree days 9 189  
Cooling Degree Days 0 1  
Month to date cooling degree days 49 11  
Year to date cooling degree days 488 226  
Growing Degree Days 12 (Base 50)    
Moisture  
Dew Point 41 °F    
Average Humidity 53    
Maximum Humidity 82    
Minimum Humidity 23    
Precipitation  
Precipitation 0.00 in 0.03 in 0.76 in (1980)
Month to date precipitation 0.38 0.40  
Year to date precipitation 7.90 11.63  
Sea Level Pressure  
Sea Level Pressure 30.18 in    
Wind  
Wind Speed 11 mph (ENE)    
Max Wind Speed 28 mph    
Max Gust Speed 35 mph    
Visibility 10 miles    
Events      
T = Trace of Precipitation, MM = Missing Value Source: NWS Daily Summary

Daily Weather History Graph

Daily Weather History Graph

Search for Another Location

Airport or City:

Trip Planner

Search our weather history database for the weather conditions in past years. The results will help you decide how hot, cold, wet, or windy it might be!

Date:

Astronomy

Sep. 11, 2013 Rise Set
Actual Time 6:55 AM MDT 7:40 PM MDT
Civil Twilight 6:25 AM MDT 8:10 PM MDT
Nautical Twilight 5:49 AM MDT 8:45 PM MDT
Astronomical Twilight 5:12 AM MDT 9:22 PM MDT
Moon 1:47 PM MDT (9/11) 11:19 PM MDT (9/11)
Length of Visible Light 13h 44m
Length of Day
12h 44m
Waxing Crescent, 39% of the Moon is Illuminated
Sep 11
Waxing Crescent
Sep 12
First Quarter
Sep 19
Full
Sep 26
Last Quarter
Oct 4
New

Hourly Weather History & Observations

Time (MDT) Temp. Windchill Dew Point Humidity Pressure Visibility Wind Dir Wind Speed Gust Speed Precip Events Conditions
12:53 AM 50.0 °F - 39.0 °F 66% 30.11 in 10.0 mi Calm Calm - N/A   Clear
1:53 AM 46.0 °F - 37.9 °F 73% 30.12 in 10.0 mi Calm Calm - N/A   Clear
2:53 AM 48.0 °F - 37.9 °F 68% 30.13 in 10.0 mi Calm Calm - N/A   Clear
3:53 AM 44.1 °F 42.5 °F 36.0 °F 73% 30.14 in 10.0 mi West 3.5 mph - N/A   Clear
4:53 AM 48.0 °F - 37.9 °F 68% 30.14 in 10.0 mi Calm Calm - N/A   Clear
5:53 AM 42.1 °F - 37.0 °F 82% 30.17 in 10.0 mi Calm Calm - N/A   Clear
6:53 AM 44.1 °F 40.8 °F 37.9 °F 79% 30.19 in 10.0 mi South 5.8 mph - N/A   Clear
7:53 AM 46.9 °F - 39.9 °F 77% 30.22 in 10.0 mi West 3.5 mph - N/A   Clear
8:53 AM 53.1 °F - 41.0 °F 64% 30.22 in 10.0 mi WSW 4.6 mph - N/A   Clear
9:53 AM 61.0 °F - 42.1 °F 50% 30.21 in 10.0 mi Calm Calm - N/A   Clear
10:53 AM 66.9 °F - 41.0 °F 39% 30.21 in 10.0 mi Calm Calm - N/A   Clear
11:53 AM 75.9 °F - 42.1 °F 30% 30.19 in 10.0 mi ENE 13.8 mph - N/A   Clear
12:53 PM 79.0 °F - 39.9 °F 25% 30.17 in 10.0 mi East 18.4 mph 27.6 mph N/A   Clear
1:53 PM 81.0 °F - 41.0 °F 24% 30.17 in 10.0 mi ENE 19.6 mph 27.6 mph N/A   Clear
2:53 PM 82.0 °F - 41.0 °F 23% 30.16 in 10.0 mi ENE 18.4 mph 32.2 mph N/A   Clear
3:53 PM 82.0 °F - 41.0 °F 23% 30.16 in 10.0 mi ENE 20.7 mph 29.9 mph N/A   Clear
4:53 PM 81.0 °F - 41.0 °F 24% 30.15 in 10.0 mi ENE 20.7 mph 29.9 mph N/A   Clear
5:53 PM 78.1 °F - 41.0 °F 27% 30.18 in 10.0 mi ENE 21.9 mph 26.5 mph N/A   Clear
6:53 PM 75.9 °F - 42.1 °F 30% 30.18 in 10.0 mi ENE 18.4 mph 27.6 mph N/A   Clear
7:53 PM 72.0 °F - 44.1 °F 37% 30.19 in 10.0 mi East 20.7 mph 27.6 mph N/A   Clear
8:18 PM 71.6 °F - 46.4 °F 41% 30.28 in 10.0 mi East 17.3 mph - N/A   Partly Cloudy
8:53 PM 68.0 °F - 46.0 °F 45% 30.21 in 10.0 mi East 15.0 mph - N/A   Clear
9:53 PM 66.0 °F - 46.9 °F 50% 30.21 in 10.0 mi ENE 12.7 mph - N/A   Clear
10:53 PM 64.0 °F - 46.0 °F 52% 30.22 in 10.0 mi ENE 12.7 mph - N/A   Clear
11:53 PM 63.0 °F - 45.0 °F 52% 30.20 in 10.0 mi ENE 15.0 mph - N/A   Clear